Hourly Weather Roundup
Issued by NWS Central Illinois

Current Version | Previous Version | Text Only | Print | Product List | Glossary On
Versions: 1 2 3 4 5 6 7 8 9 10 11 12 13 14 15 16 17 18 19 20 21 22 23 24 25 26 27 28 29 30 31 32 33 34 35 36 37 38 39 40 41 42 43 44 45 46 47 48 49 50
830
NZUS43 KILX 250710
HWRILX

AREA WEATHER ROUNDUP
NATIONAL WEATHER SERVICE, LINCOLN IL
100 AM CST SAT FEB 25 2017


CITY           SKY/WX    TMP DP  RH WIND       PRES   REMARKS
BLOOMINGTON    LGT RAIN  34  30  85 W24G31    29.67S WCI  21
CHAMPAIGN      LGT SNOW  35  31  85 W23G30    29.69S FOG     WCI  23
DECATUR        CLOUDY    33  28  81 W23G29    29.73R WCI  21
EFFINGHAM      CLOUDY    35  27  72 SW20G30   29.79S WCI  24
FLORA          CLOUDY    40  29  65 W25       29.79R WCI  29
GALESBURG      LGT SNOW  26  23  89 W18G30    29.76R WCI  13
JACKSONVILLE   CLOUDY    29  24  81 W24G35    29.82R WCI  15
LACON          LGT RAIN  31  28  90 NW14G21   29.70R WCI  21
LAWRENCEVILLE  MOCLDY    41  32  70 NW26G32   29.75R WCI  30
LITCHFIELD     CLOUDY    31  23  73 W25G36    29.82R WCI  17
$$


CITY           SKY/WX    TMP DP  RH WIND       PRES   REMARKS
LINCOLN        CLOUDY    33  29  88 W13G25    29.74R WCI  23
MACOMB         CLOUDY    27  24  88 NW22G33   29.82R WCI  13
MATTOON        CLOUDY    35  26  69 W15G26    29.73R WCI  25
MT CARMEL AP   MOCLDY    40  31  70 W20G29    29.75R WCI  31
OLNEY-NOBLE AP CLOUDY    36  32  87 W20G31    29.78R WCI  25
PARIS          CLOUDY    37  30  74 W21G43    29.72R WCI  26
PEORIA         LGT SNOW  31  28  89 W14G21    29.72R FOG     WCI  21
PONTIAC        CLOUDY    33  32  94 NW16      29.67S WCI  23
RANTOUL        CLOUDY    38  34  85 W15G23    29.66F WCI  29
SPRINGFIELD    CLOUDY    31  26  82 W24G32    29.78R WCI  17
TAYLORVILLE    CLOUDY    31  27  85 W23G39    29.78R FOG     WCI  18
$$

...REGIONAL REPORTS...


CITY           SKY/WX    TMP DP  RH WIND       PRES   REMARKS
CHICAGO O`HARE CLOUDY    32  26  78 W15       29.60S WCI  22
KANKAKEE       CLOUDY    34  30  86 W13       29.64R WCI  25
MOLINE         MIX PCPN  27  21  78 NW20      29.76R WCI  13
MOUNT STERLING CLOUDY    27  22  81 NW20G26   29.83R WCI  14
MOUNT VERNON   CLOUDY    38  26  62 W13G28    29.82R WCI  30
PITTSFIELD     CLOUDY    29  23  78 W18G26    29.86R WCI  17
QUINCY         CLOUDY    27  21  78 W21G30    29.86R WCI  13
ROCKFORD       LGT SNOW  28  25  88 NW15      29.66S FOG     WCI  16
$$


CITY           SKY/WX    TMP DP  RH WIND       PRES   REMARKS
BURLINGTON     CLOUDY    25  21  85 NW18G30   29.82R FOG     WCI  11
CEDAR RAPIDS   LGT SNOW  21  17  84 N23       29.81R FOG     WCI   5
DES MOINES     MOCLDY    21  14  74 NW17G24   29.95R WCI   7
KIRKSVILLE     CLOUDY    25  19  78 NW16      29.92R WCI  12
OTTUMWA        PTCLDY    23  17  78 NW17      29.89R WCI   9
ST LOUIS       CLOUDY    33  19  56 W23G38    29.88R WCI  21
$$


CITY           SKY/WX    TMP DP  RH WIND       PRES   REMARKS
TERRE HAUTE    LGT RAIN  40  29  64 W20G35    29.70R WCI  30
EVANSVILLE     PTCLDY    44  31  60 W13G18    29.76R
INDIANAPOLIS   MOCLDY    41  33  73 W12       29.66R WCI  34
LAFAYETTE      CLOUDY    39  34  82 W18G25    29.63S WCI  30
MADISON        LGT SNOW  21  17  84 NW13      29.66R FOG     WCI   9
MILWAUKEE      FLURRIES  28  23  81 NW13      29.58F WCI  17
$$






USA.gov is the U.S. government's official web portal to all federal, state and local government web resources and services.